Regional Weather Roundup
Issued by NWS

Home | Current Version | Previous Version | Graphics & Text | Print | Product List | Glossary On
Versions: 1 2 3 4 5 6 7 8 9 10 11 12 13 14 15 16 17 18 19 20 21 22 23 24 25 26 27 28 29 30
000
ASUS45 KGTF 180310
RWRMT
MONTANA HOURLY WEATHER ROUNDUP
NATIONAL WEATHER SERVICE GREAT FALLS MT
900 PM MDT FRI APR 17 2015

NOTE: "FAIR" INDICATES FEW OR NO CLOUDS BELOW 12000 FEET WITH NO
SIGNIFICANT WEATHER AND/OR OBSTRUCTIONS TO VISIBILITY.

MTZ001>007-043-180400-
WEST OF THE DIVIDE

CITY           SKY/WX    TMP DP  RH WIND       PRES   REMARKS
KALISPELL      CLEAR     58  28  32 CALM      29.98R
MISSOULA       CLEAR     60  27  28 N8        30.01R
BUTTE          CLEAR     55  26  32 N9        30.06R
DEER LODGE       N/A     45  28  53 W8        30.07R
EUREKA           N/A     59  32  36 NE3       29.99R
HAMILTON         N/A     63  27  25 NW5       30.02R
LIBBY            N/A     54  36  50 CALM      30.02S
$$

MTZ008-052>055-180400-
SOUTHWEST MONTANA

CITY           SKY/WX    TMP DP  RH WIND       PRES   REMARKS
BOZEMAN        CLEAR     42  34  73 SE8       30.02S
DILLON         CLEAR     56  22  26 N5        30.02R
$$

MTZ009-010-012-014-046-048-049-054-180400-
EAST SLOPES AND CENTRAL MONTANA

CITY           SKY/WX    TMP DP  RH WIND       PRES   REMARKS
CUT BANK       CLEAR     52  28  39 W10       29.97R
GREAT FALLS    CLEAR     56  32  40 SE7       29.96S
MALMSTROM AFB  CLEAR     50  36  57 SE9       29.96S
HELENA         CLEAR     54  25  32 W7        29.99R
$$

MTZ011-013-016-021-045-047-050-051-180400-
NORTH CENTRAL MONTANA

CITY           SKY/WX    TMP DP  RH WIND       PRES   REMARKS
HAVRE          CLEAR     51  34  52 S12       29.94S
LEWISTOWN      CLEAR     51  25  36 SE8       30.00S
FORT BENTON      N/A     59  32  36 E7        29.95S
$$

MTZ017>020-022>042-056>058-061-062-180400-
EASTERN PLAINS

CITY           SKY/WX    TMP DP  RH WIND       PRES   REMARKS
BAKER          MOCLDY    44  31  60 S8        30.09R
BILLINGS       CLEAR     59  30  33 SE7       30.03S
GLASGOW        CLEAR     51  26  37 SE9       29.99F
JORDAN           N/A     50  28  42 S7        30.01R
LIVINGSTON     CLEAR     51  22  31 SE7       30.01F
MILES CITY     PTCLDY    55  30  38 SE6       30.04R
SIDNEY         CLEAR     54  28  37 N6        30.06R
WOLF POINT     CLEAR     57  30  35 SE5       30.02S
BIG TIMBER       N/A     52  27  37 SE6       30.04R
FORSYTH          N/A     55  34  44 SE8       30.03S
PLENTYWOOD       N/A     50  23  34 E12       30.06S
POPLAR           N/A     54  28  37 E6        30.03S
$$

REGIONAL REPORTS...DAKOTAS

CITY           SKY/WX    TMP DP  RH WIND       PRES   REMARKS
WILLISTON      CLEAR     56  24  29 NE9       30.07R
MINOT          CLEAR     42  23  46 N6        30.11S
DICKINSON      PTCLDY    49  22  34 S7        30.07R
BEACH          FAIR      43  27  52 S3        30.09R
CROSBY         FAIR      45  27  49 E9        30.11R
WATFORD CITY   FAIR      48  25  40 E8        30.06R
BISMARCK       PTCLDY    53  30  41 NE9       30.09R
GRAND FORKS    CLEAR     45  29  53 NE7       30.11R
FARGO          CLEAR     58  17  20 N12       30.07R
BUFFALO SD       N/A     56  29  35 E8        30.03S
RAPID CITY     LGT RAIN  48  44  86 SW9       30.12S
$$

REGIONAL REPORTS...WYOMING/IDAHO/WASHINGTON

CITY           SKY/WX    TMP DP  RH WIND       PRES   REMARKS
GILLETTE       CLOUDY    48  40  73 S16       30.10R
SHERIDAN       PTCLDY    45  33  63 S3        30.07R
BUFFALO WY     PTCLDY    47  37  68 S6        30.11S
CODY           CLEAR     48  34  57 SW6       30.07S
YELLOWSTONE LA   N/A     32  22  66 CALM      30.14R
IDAHO FALLS    CLEAR     55  28  35 SW10      30.01R
SALMON         CLEAR     57  21  24 NE10      29.98R
BOISE          CLEAR     64  29  26 W6        30.00S
SPOKANE        PTCLDY    60  36  40 SW12      30.05S
$$

REGIONAL REPORTS...ALBERTA

CITY           SKY/WX    TMP DP  RH WIND       PRES   REMARKS
EDMONTON       CLEAR     41  39  93 NW3       29.93R
CALGARY        PTCLDY    54  21  28 NW13      29.95R
LETHBRIDGE     PTCLDY    57  30  35 W20       29.92R
MEDICINE HAT   PTCLDY    57  30  35 S10       29.86R
$$

REGIONAL REPORTS...SASKATCHEWAN

CITY           SKY/WX    TMP DP  RH WIND       PRES   REMARKS
SWIFT CURRENT  CLEAR     50  27  40 SE16G23   29.93F
REGINA         CLEAR     50  28  43 E13       30.06F
SASKATOON      PTCLDY    54  27  35 SE18G26   29.96F
$$



USA.gov is the U.S. government's official web portal to all federal, state and local government web resources and services.